International Skating Union - Official Site

ISU World Cup Calgary
November 13-15, 2015

Draw | Lap Times | Index | World Cup

Referee: Rick  HUNT  (CAN)
Starter: Matthew  VRAA  (USA)
StartTime: EndTime: Air Temp: Ice Temp: Humidity:
09:00 09:39 17℃ -7.5℃ 30%
Result 3000m Ladies Division B
Rankings as of Nov 15 2015 4:47PM
Rank: No.: Name: Nation: Time: Behind: Points:
1 244 Misaki  Oshigiri JPN JPN 4:03.97200m - 19.64 - (19.6)
600m - 49.78 - (30.1)
1000m - 1:21.62 - (31.8)
1400m - 1:53.83 - (32.2)
1800m - 2:26.47 - (32.6)
2200m - 2:58.94 - (32.4)
2600m - 3:31.67 - (32.7)
3000m - 4:03.97 - (32.3)
32
2 290 Elizaveta  Kazelina RUS RUS 4:05.20200m - 19.64 - (19.6)
600m - 49.77 - (30.1)
1000m - 1:21.14 - (31.3)
1400m - 1:53.28 - (32.1)
1800m - 2:25.58 - (32.3)
2200m - 2:58.42 - (32.8)
2600m - 3:31.35 - (32.9)
3000m - 4:05.20 - (33.8)
1.23 27
3 245 Miho  Takagi JPN JPN 4:05.34200m - 20.36 - (20.3)
600m - 51.28 - (30.9)
1000m - 1:22.95 - (31.6)
1400m - 1:54.66 - (31.7)
1800m - 2:26.83 - (32.1)
2200m - 2:59.15 - (32.3)
2600m - 3:31.67 - (32.5)
3000m - 4:05.34 - (33.6)
1.37 23
4 217 Isabelle  Weidemann CAN CAN 4:06.57200m - 21.18 - (21.1)
600m - 52.78 - (31.6)
1000m - 1:24.75 - (31.9)
1400m - 1:56.93 - (32.1)
1800m - 2:29.12 - (32.1)
2200m - 3:01.27 - (32.1)
2600m - 3:33.67 - (32.3)
3000m - 4:06.57 - (32.9)
2.60 19
5 243 Fuyo  Matsuoka JPN JPN 4:07.53200m - 20.97 - (20.9)
600m - 52.00 - (31.0)
1000m - 1:23.64 - (31.6)
1400m - 1:56.04 - (32.4)
1800m - 2:28.46 - (32.4)
2200m - 3:01.11 - (32.6)
2600m - 3:34.03 - (32.9)
3000m - 4:07.53 - (33.5)
3.56 15
6 234 Bente  Kraus GER GER 4:08.79200m - 21.07 - (21.0)
600m - 52.68 - (31.6)
1000m - 1:24.73 - (32.0)
1400m - 1:56.92 - (32.1)
1800m - 2:29.53 - (32.6)
2200m - 3:02.25 - (32.7)
2600m - 3:35.63 - (33.3)
3000m - 4:08.79 - (33.1)
4.82 11
7 205 Marina  Zuyeva BLR BLR 4:08.95200m - 20.68 - (20.6)
600m - 51.77 - (31.0)
1000m - 1:23.24 - (31.4)
1400m - 1:55.31 - (32.0)
1800m - 2:27.95 - (32.6)
2200m - 3:00.96 - (33.0)
2600m - 3:34.40 - (33.4)
3000m - 4:08.95 - (34.5)
4.98 9
8 224 Xin  Zhao CHN CHN 4:09.16 5.19 7
9 220 Jing  Liu CHN CHN 4:09.87200m - 21.08 - (21.0)
600m - 52.96 - (31.8)
1000m - 1:24.79 - (31.8)
1400m - 1:57.42 - (32.6)
1800m - 2:29.94 - (32.5)
2200m - 3:03.15 - (33.2)
2600m - 3:36.20 - (33.0)
3000m - 4:09.87 - (33.6)
5.90 6
10 256 Do-Young  Park KOR KOR 4:10.00200m - 20.69 - (20.6)
600m - 52.03 - (31.3)
1000m - 1:24.35 - (32.3)
1400m - 1:56.50 - (32.1)
1800m - 2:29.13 - (32.6)
2200m - 3:01.89 - (32.7)
2600m - 3:35.55 - (33.6)
3000m - 4:10.00 - (34.4)
6.03 5
11 202 Jelena  Peeters BEL BEL 4:10.19200m - 20.17 - (20.1)
600m - 51.61 - (31.4)
1000m - 1:23.69 - (32.0)
1400m - 1:56.17 - (32.4)
1800m - 2:28.96 - (32.7)
2200m - 3:01.99 - (33.0)
2600m - 3:35.61 - (33.6)
3000m - 4:10.19 - (34.5)
6.22 4
12 215 Josie  Spence CAN CAN 4:10.21200m - 20.83 - (20.8)
600m - 53.20 - (32.3)
1000m - 1:25.74 - (32.5)
1400m - 1:58.69 - (32.9)
1800m - 2:31.35 - (32.6)
2200m - 3:04.27 - (32.9)
2600m - 3:37.15 - (32.8)
3000m - 4:10.21 - (33.0)
6.24 3
13 236 Francesca  Bettrone ITA ITA 4:10.24200m - 20.83 - (20.8)
600m - 52.32 - (31.4)
1000m - 1:24.41 - (32.0)
1400m - 1:56.86 - (32.4)
1800m - 2:29.66 - (32.8)
2200m - 3:02.81 - (33.1)
2600m - 3:36.30 - (33.4)
3000m - 4:10.24 - (33.9)
6.27 2
14 212 Lauren  McGuire CAN CAN 4:13.35200m - 21.01 - (21.0)
600m - 52.47 - (31.4)
1000m - 1:24.74 - (32.2)
1400m - 1:57.52 - (32.7)
1800m - 2:30.81 - (33.2)
2200m - 3:04.56 - (33.7)
2600m - 3:38.85 - (34.2)
3000m - 4:13.35 - (34.5)
9.38 1
15 282 Aleksandra  Goss POL POL 4:13.40200m - 20.43 - (20.4)
600m - 52.26 - (31.8)
1000m - 1:24.59 - (32.3)
1400m - 1:57.36 - (32.7)
1800m - 2:30.87 - (33.5)
2200m - 3:04.57 - (33.6)
2600m - 3:38.75 - (34.1)
3000m - 4:13.40 - (34.6)
9.43 0
16 285 Luiza  Zlotkowska POL POL 4:13.59200m - 20.08 - (20.0)
600m - 51.05 - (30.9)
1000m - 1:22.98 - (31.9)
1400m - 1:55.19 - (32.2)
1800m - 2:27.96 - (32.7)
2200m - 3:01.84 - (33.8)
2600m - 3:36.75 - (34.9)
3000m - 4:13.59 - (36.8)
9.62 0
17 228 Nikola  Zdráhalová CZE CZE 4:13.61200m - 19.95 - (19.9)
600m - 51.34 - (31.3)
1000m - 1:23.57 - (32.2)
1400m - 1:56.86 - (33.2)
1800m - 2:30.50 - (33.6)
2200m - 3:04.80 - (34.3)
2600m - 3:39.17 - (34.3)
3000m - 4:13.61 - (34.4)
9.64 0
18 284 Urszula  Wlodarczyk POL POL 4:13.87200m - 21.14 - (21.1)
600m - 52.46 - (31.3)
1000m - 1:24.74 - (32.2)
1400m - 1:57.88 - (33.1)
1800m - 2:31.51 - (33.6)
2200m - 3:05.26 - (33.7)
2600m - 3:39.57 - (34.3)
3000m - 4:13.87 - (34.3)
9.90 0
19 207 Kali  Christ CAN CAN 4:14.60200m - 21.32 - (21.3)
600m - 53.81 - (32.4)
1000m - 1:26.45 - (32.6)
1400m - 1:59.00 - (32.5)
1800m - 2:31.98 - (32.9)
2200m - 3:05.23 - (33.2)
2600m - 3:39.65 - (34.4)
3000m - 4:14.60 - (34.9)
10.63 0
20 238 Francesca  Lollobrigida ITA ITA 4:14.65200m - 20.01 - (20.0)
600m - 51.43 - (31.4)
1000m - 1:22.94 - (31.5)
1400m - 1:55.42 - (32.4)
1800m - 2:28.43 - (33.0)
2200m - 3:02.78 - (34.3)
2600m - 3:37.91 - (35.1)
3000m - 4:14.65 - (36.7)
10.68 0
21 283 Katarzyna  Wozniak POL POL 4:14.88200m - 20.31 - (20.3)
600m - 51.98 - (31.6)
1000m - 1:23.47 - (31.4)
1400m - 1:55.54 - (32.0)
1800m - 2:28.75 - (33.2)
2200m - 3:02.71 - (33.9)
2600m - 3:37.82 - (35.1)
3000m - 4:14.88 - (37.0)
10.91 0
22 257 Ji-Woo  Park KOR KOR 4:15.96200m - 21.13 - (21.1)
600m - 53.55 - (32.4)
1000m - 1:26.37 - (32.8)
1400m - 1:59.39 - (33.0)
1800m - 2:32.65 - (33.2)
2200m - 3:06.60 - (33.9)
2600m - 3:41.09 - (34.4)
3000m - 4:15.96 - (34.8)
11.99 0
23 203 Tatyana  Mikhailova BLR BLR 4:17.61200m - 20.84 - (20.8)
600m - 53.72 - (32.8)
1000m - 1:27.20 - (33.4)
1400m - 2:00.52 - (33.3)
1800m - 2:33.88 - (33.3)
2200m - 3:07.44 - (33.5)
2600m - 3:41.80 - (34.3)
3000m - 4:17.61 - (35.8)
13.64 0
24 229 Saskia  Alusalu EST EST 4:17.71200m - 20.97 - (20.9)
600m - 53.45 - (32.4)
1000m - 1:26.02 - (32.5)
1400m - 1:59.48 - (33.4)
1800m - 2:32.76 - (33.2)
2200m - 3:06.85 - (34.0)
2600m - 3:41.74 - (34.8)
3000m - 4:17.71 - (35.9)
13.74 0
25 294 Erin  Bartlett USA USA 4:22.60200m - 21.50 - (21.5)
600m - 53.30 - (31.8)
1000m - 1:25.95 - (32.6)
1400m - 1:59.15 - (33.2)
1800m - 2:33.30 - (34.1)
2200m - 3:08.48 - (35.1)
2600m - 3:44.74 - (36.2)
3000m - 4:22.60 - (37.8)
18.63 0
26 297 Maria  Lamb USA USA DNF200m - 21.30 - (21.3)
600m - 53.88 - (32.5)
1000m - 1:26.64 - (32.7)
1400m - 2:45.33 - (78.6)
0
27 218 Jiachen  Hao CHN CHN DQ 0